Regional Weather Roundup
Issued by NWS Wakefield, VA

Home | Current Version | Previous Version | Graphics & Text | Print | Product List | Glossary On
Versions: 1 2 3 4 5 6 7 8 9 10 11 12 13 14 15 16 17 18 19 20 21 22 23 24 25 26 27
000
ASUS41 KAKQ 210210
RWRAKQ

REGIONAL WEATHER ROUNDUP
NATIONAL WEATHER SERVICE WAKEFIELD VA
1000 PM EDT SUN APR 20 2014

Note: "fair" indicates few or no clouds below 12,000 feet with no
significant weather and/or obstructions to visibility. * = Denotes
station may not report precipitation (e.g., rain,snow,etc.),
thunder or fog.

VAZ042-051-052>054-056-210300-
NORTHERN VIRGINIA

CITY           SKY/WX    TMP DP  RH WIND       PRES   REMARKS
WASH NATIONAL  PTCLDY    53  34  48 E7        30.34S
DULLES         CLEAR     49  34  56 SE3       30.32S
FORT BELVOIR   CLEAR     51  34  52 VRB2      30.34S
QUANTICO       CLEAR     53  36  52 E9        30.34S
FREDERICKSBRG* CLEAR     52  34  50 E3        30.31F
STAFFORD*      CLEAR     49  37  63 E5        30.36F
WARRENTON      CLEAR     51  40  66 E7        30.31S
CULPEPER*      CLEAR     54  32  43 CALM      30.32S
MANASSAS*      CLEAR     52  36  54 E3        30.33R
LEESBURG*      CLEAR     54  37  54 SE3       30.33S
WINCHESTER     CLEAR     50  34  53 E3        30.30S
$$

VAZ048-049-060>072-079>083-210300-
CENTRAL AND SOUTH CENTRAL VIRGINIA...AND NORTH CENTRAL NORTH CAROLINA

CITY           SKY/WX    TMP DP  RH WIND       PRES   REMARKS
RICHMOND       MOCLDY    50  31  48 NE8       30.29S
CHESTERFIELD*  NOT AVBL
HANOVER        CLEAR     49  35  58 NE3       30.31S
TAPPAHANNOCK*  CLEAR     48  28  45 N7        30.31S
CHARLOTTSVILLE CLEAR     53  33  46 NE7       30.29R
ORANGE*        CLEAR     50  34  53 NE6       30.32S
LOUISA*        CLEAR     52  37  58 E7        30.29R
FARMVILLE*     CLEAR     52  34  50 NE6       30.25F
SOUTH HILL*    PTCLDY    52  36  54 CALM      30.31R
ROANOKE RAPIDS PTCLDY    54  36  50 NE10      30.24S
RALEIGH        CLOUDY    57  35  43 NE6       30.23S
$$

VAZ088>098-210300-
SOUTHEAST VIRGINIA

CITY           SKY/WX    TMP DP  RH WIND       PRES   REMARKS
NORFOLK        CLOUDY    48  40  73 NE22G28   30.25F
VIRGINIA BEACH CLOUDY    47  40  76 NE18G31   30.24S
NORFOLK NAVAL  CLOUDY    50  39  66 NE22      30.27S
WEST POINT*    CLEAR     50  28  41 NE6       30.31S
NEWPORT NEWS   MOCLDY    53  36  52 NE12G22   30.27S
LANGLEY AFB    MOCLDY    49  40  70 NE16      30.27S
FORT EUSTIS    CLEAR     50  34  54 NE6       30.25S
WILLIAMSBURG*  CLEAR     50  37  62 NE6       30.28S
FRANKLIN*      PTCLDY    52  36  54 NE8       30.25F
WAKEFIELD      PTCLDY    50  33  52 VRB6      30.26F
$$

VAZ020-022-025-037-045-210300-
WESTERN AND SOUTHWEST VIRGINIA

CITY           SKY/WX    TMP DP  RH WIND       PRES   REMARKS
STAUNTON*      CLEAR     46  34  62 CALM      30.29S
HOT SPRINGS VA CLEAR     46  28  49 E6        30.32S
LYNCHBURG      CLEAR     59  33  37 E6        30.27R
DANVILLE       CLEAR     56  35  45 NE8       30.24R
MARTINSVILLE   CLEAR     49  38  65 CALM      30.26S
ROANOKE        PTCLDY    58  31  35 SE3       30.27R
BLACKSBURG     PTCLDY    52  36  54 E6        30.28S
DUBLIN*        CLEAR     49  30  48 CALM      30.27R
MARION*        CLEAR     51  26  38 E3        30.27R
HILLSVILLE*    CLEAR     54  19  26 E6        30.28R
RICHLANDS*     CLEAR     62  26  26 SE9       30.21R
WISE*          CLEAR     63  19  19 S3        30.20S
ABINGDON*      CLEAR     59  29  31 E8        30.20R
$$

MDZ021>025-VAZ099-100-210300-
SOUTHERN MARYLAND AND THE DELMARVA PENINSULA

CITY           SKY/WX    TMP DP  RH WIND       PRES   REMARKS
PATUXENT RIVER CLEAR     46  25  43 NE12      30.32F
BAY BRIDGE APT CLEAR     46  32  57 E3        30.35F
LEONARDTOWN    CLEAR     46  27  46 NE6       30.34F
DOVER          CLEAR     45  21  39 NE9       30.31F
GEORGETOWN     PTCLDY    42  33  70 NE7       30.34F
EASTON         NOT AVBL
CAMBRIDGE      CLEAR     45  27  49 NE3       30.33S
SALISBURY      PTCLDY    44  34  67 NE6       30.32F
OCEAN CITY     PTCLDY    45  36  70 NE16G22   30.32F
WALLOPS ISLAND PTCLDY    46  38  73 NE13      30.31F
ACCOMACK*      PTCLDY    43  34  70 NE12      30.29F
$$

NCZ012>017-030>032-210300-
EASTERN NORTH CAROLINA

CITY           SKY/WX    TMP DP  RH WIND       PRES   REMARKS
ELIZABETH CITY CLOUDY    48  42  80 N22G28    30.21S
AHOSKIE*       CLOUDY    52  32  46 N14G22    30.24S
EDENTON*       CLOUDY    49  42  76 N15G23    30.20S
CURRITUCK*     CLOUDY    47  42  82 N20G32    30.22S
KILL DEVIL HLS CLOUDY    47  45  90 N12G25    30.14F FOG
MANTEO         CLOUDY    47  45  90 NE25G32   30.15S
CAPE HATTERAS  CLOUDY    49  49 100 NE18G37   30.05F
GOLDSBORO      CLOUDY    56  39  52 N12G20    30.17R
WASHINGTON     CLOUDY    53  44  71 N15G21    30.18S
GREENVILLE     CLOUDY    52  36  54 N10G20    30.20F
NEW BERN       CLOUDY    54  45  71 N14G25    30.15R
WILMINGTON     CLOUDY    56  46  69 N16G22    30.11R
$$

VAZ048-210300-
ELSEWHERE

CITY           SKY/WX    TMP DP  RH WIND       PRES   REMARKS
HARRISBURG PA  PTCLDY    54  35  48 SE10      30.32S
BALTIMORE      CLEAR     49  34  56 E6        30.34R
ANNAPOLIS      CLEAR     50  34  54 E9        30.34F
ANDREWS AFB    CLEAR     47  34  59 E5        30.33F
WILMINGTON DE  CLEAR     48  25  40 E9        30.37S
PHILADELPHIA   CLEAR     47  20  34 E8        30.38S
WILDWOOD NJ*   MOCLDY    45  30  57 NE9G17    30.35F
ATLANTIC CITY  PTCLDY    38  29  70 N5        30.35F
HENDERSON NC   PTCLDY    52  34  50 NE7       30.24S
GREENSBORO     CLEAR     57  34  41 NE5       30.22R
ROCKY MOUNT    CLOUDY    55  35  47 N14       30.22S
FAYETTEVILLE   CLOUDY    60  40  47 NE16G23   30.18R
CHARLOTTE      PTCLDY    59  34  39 NE6       30.21R
$$

VAZ100-210300-
MARINE

STATION/POSITION TIME  TEMP    WIND        PRES    WAVE   SWELL
                       AIR SEA DIR/SP/G            HT/PER HT/PER
                 (UTC) (F)     (DEG/KT/KT) (MB)    (FT/S) (FT/S)
44066 TX TWR #4  0200   43 44   60/ 16/ 19 1027.2F   6/ 8   3/ 8
CAPE MAY NJ      0200   44 53   70/  6/ 12 1027.1F
LEWES DE         0200   46 51   70/ 17/ 20 1026.6F
15NM E FENWICK I 0200   45 46              1026.2F   8/10
OCEAN-CITY-INLET 0200   45 49   60/ 10/ 17 1026.5S
WACHAPREAGUE VA  0200   46 56   30/ 15/ 23 1025.0F
THOMAS POINT MD  0200   49 54   90/ 12/ 13 1027.9S
GOOSES REEF MD   0200   49      90/ 14/ 16 1027.9F
COVE POINT MD    0200   48      70/ 10/ 12 1026.9F
SOLOMONS ISLAND  0200      53                N/A
BISHOPS HEAD MD  0200   46 57   50/ 12/ 18 1026.3F
PINEY POINT MD   0200           70/  7/ 11   N/A
POTOMAC MD       0200   49      60/ 16/ 19 1025.8S
CAMBRIDGE MD     0200   47 58   50/ 10/ 13 1026.6S
LEWISETTA VA     0200   49 56   60/ 13/ 18 1026.2F
RAPPAHANNOCK LGT 0200           30/ 23/ 26 1025.6F
STINGRAY PT      0200   50      60/ 17/ 19 1025.5S
YORK RVR RNG VA  0200   50      50/ 23/ 26 1024.2F
YORKTOWN VA      0200   51 55   40/ 15/ 17 1024.8F
JAMESTOWN VA     0200   50      50/  6/ 12   N/A
DOMINION TERM VA 0200   51      30/  8/ 19 1024.6F
KIPTOPEKE VA     0200      53   50/ 11/ 17   N/A
CHES BAY BRIDGE  0200   48 52   20/ 21/ 25 1024.0F
CAPE HENRY VA    0200   47      20/ 27/ 31   N/A
CHESAPEAKE LGHT  0100   46      30/ 28/ 32 1023.7R
WILLOUBY STN VA  0200   49      30/ 20/ 23 1023.8S
S CRANEY ISL VA  0200           10/ 14/ 18 1024.6F
CAPE HENRY BUOY  0200      46                N/A     9/11   3/11
1ST LANDING BUOY 0200      47                N/A     9/11   7/11
64NM E OF VA BCH 0200   49 48   20/ 21/ 27 1020.3F  13/11  10/11
DUCK PIER NC     0200   47 49   10/ 26/ 32 1020.4F
44100 DUCK FRF   0200      48                N/A    13/12   7/12
44056 DUCK FRF   0200      48                N/A    12/12   7/12
OREGON INLET NC  0200   48 51  360/ 20/ 28 1019.7F
HATTERAS NC      0200   51 55   10/ 19/ 36 1017.6F
DIAMOND SHLS NC  0200   60 76   10/ 31/ 37 1014.8F  18/11  13/11
CAPE LOOKOUT NC  0100   54      10/ 25/ 32 1017.7R
FRYING PAN SHLS  0200   59 68   30/ 33/ 41 1015.3R  11/ 8   5/11
$$



USA.gov is the U.S. government's official web portal to all federal, state and local government web resources and services.